Terminal Aerodrome Forecast
Issued by NWS

Home | Current Version | Previous Version | Text Only | Print | Product List | Glossary Off
Versions: 1 2 3 4 5 6 7 8 9 10 11 12 13 14 15 16 17 18 19 20 21

000
FTUS45 KGGW 200500
TAFOLF
TAF
KOLF 200520Z 2006/2106 VRB06KT P6SM SCT090
     FM201500 31012KT P6SM SCT230
     FM210300 31007KT P6SM FEW250=

USA.gov is the U.S. government's official web portal to all federal, state and local government web resources and services.